STARLINK-34363, 64497

Orbit data source: Space-Track

STARLINK-34363, 64497 is a payload satellite owned by SpaceX/Seattle (US) in LEO that was launched on Mon, 23 Jun 2025 UTC via an FALCON 9 launch vehicle from the Air Force Eastern Test Range (AFETR). Payload-class satellites include a variety of spacecraft equipped with specific instruments for various scientific and technological missions. These include communications satellites like Starlink; space stations such as the ISS; scientific satellites like the Hubble; Earth observation satellites from companies like Planet Labs, Umbra, and HawkEye 360; GPS; miniature CubeSats for education and research; and military/defense satellites.

Loading next visibility...
Identifier
64497, 2025-133AB
Orbit
LEO
Country
Flag of USUS
Related business
Manufacturer
SpaceX/Seattle
Mission
Operational Commercial Communications
Bus & Motor
STARLINK V2MO, Unknown motor
Mass
575 kg wet, ~530 kg dry
Launch date (UTC)
2025-06-23 (1 year ago)
Launch vehicle
FALCON 9
Launch site
Air Force Eastern Test Range (AFETR)
Object type
Payload
Rocket body
Debris
Shape & HBR
Box + 2 Pan, 17.7 m
Radar Cross Section
36.964 m², Large (>1 m²)

Expand to show TLE details & history
Last TLE update: 23 hours ago

TLE from 23 hours ago
0 STARLINK-34363
1 64497U 25133AB  26170.90322366  .00024001  00000-0  71876-3 0  9990
2 64497  53.1605 358.7648 0000730 104.5674 255.5410 15.34419871 56882
Epoch: 2026-06-19T21:40Z
TLE epoch observation values (Epoch: 2026-06-19T21:40:38.524Z)
Latitude
0.00003°
Longitude
125.47878°
Altitude
463.67 km
Speed
7.636 km/s
True Right ascension
23h 55m 03s
True Declination
0° 00' 00"
Sunlit
Object was in daylight at epoch
Visualization orbit readout
Latitude
Unknown
Longitude
Unknown
Altitude
Unknown
Speed
Unknown
Apparent Right ascension
Unknown
Apparent Declination
Unknown
Sunlit
N/A
Visualization observer readout
Local Sidereal Time
07:23:41
Azimuth
Unknown
Elevation
Unknown
Doppler factor
Unknown
Orbital elements
Apogee altitude
463.4 km
Perigee altitude
462.402 km
Semi-major axis
6,841.038 km
Eccentricity
0.00007
Inclination
53.1605°
RAAN
358.7648°
Arg. of periapsis
104.5674°
True anomaly
255.5329°
Mean anomaly
255.541°
Eccentric anomaly
255.53695°
Mean motion
3.83584 °/min
Orbital period
93.85 mins
BSTAR
0.00071876
Loading maneuver chart data...
Computing Atmospheric mass density...
Loading historical data...
Loading historical data...
Loading historical data...
Loading historical data...
Loading historical data...
Loading historical data...
Loading historical data...

Documentation

Showing up to 5 results
|